Flag for Japan Weather past 2 weeks in Himeji, Japan

66 °F

Passing clouds.

Feels Like: 66 °F
Forecast: 57 / 73 °F
Wind: 7 mph from Northwest

Location: Kansai International Airport

Current Time: Oct 9, 2015 at 3:18:57 AM

Latest Report: Oct 9, 2015 at 2:30 AM

Visibility: N/A

Pressure: 29.77 "Hg

Humidity: 60%

Dew point: 52 °F

Location of HimejiLocation

Historic Weather in Himeji — Graph


Himeji temperature yesterday

Maximum temperature yesterday: 73 °F (at 11:30 AM)
Minimum temperature yesterday: 64 °F (at 1:30 AM)
Average temperature yesterday: 68 °F

Past Weeks' High & Low Weather Summary

High81 °F (Sep 26, 1:00 PM)100% (Sep 25, 3:00 AM)30.27 "Hg (Sep 25, 3:00 AM)
Low63 °F (Oct 5, 4:30 AM)31% (Oct 7, 3:30 PM)29.47 "Hg (Oct 2, 12:30 AM)
Average71 °F66%29.94 "Hg
* Reported Sep 24 2:00 AM — Oct 9 2:00 AM, Himeji, Weather by CustomWeather, © 2015

Note: Actual official high and low records may vary slightly from our data, if they occured in-between our weather recording intervals... More about our weather records


Himeji weather history for previous 24 hours

Time TempWeatherWind HumidityBarometerVisibility
2:00 AM
Fri, Oct 9
66 °FPassing clouds.7 mph60%29.77 "HgN/A
1:30 AM66 °FPassing clouds.7 mph56%29.80 "HgN/A
1:00 AM66 °FPassing clouds.8 mph56%29.80 "HgN/A
12:30 AM66 °FPassing clouds.5 mph60%29.77 "HgN/A
12:00 AM66 °FPartly cloudy.7 mph56%29.80 "HgN/A
11:30 PM
Thu, Oct 8
68 °FPassing clouds.10 mph56%29.80 "HgN/A
11:00 PM66 °FPassing clouds.10 mph60%29.80 "HgN/A
10:30 PM68 °FPassing clouds.9 mph56%29.80 "HgN/A
10:00 PM68 °FPassing clouds.7 mph56%29.80 "HgN/A
9:30 PM68 °FPartly cloudy.9 mph56%29.80 "HgN/A
9:00 PM68 °FPassing clouds.10 mph56%29.80 "HgN/A
8:30 PM68 °FPassing clouds.10 mph56%29.80 "HgN/A
8:00 PM68 °FPassing clouds.13 mph53%29.80 "HgN/A
7:30 PM68 °FPartly cloudy.16 mph53%29.80 "HgN/A
7:00 PM70 °FPartly cloudy.15 mph50%29.80 "HgN/A
6:30 PM70 °FPartly cloudy.14 mph53%29.77 "HgN/A
6:00 PM70 °FPartly cloudy.15 mph46%29.77 "HgN/A
5:30 PM72 °FPartly sunny.16 mph47%29.77 "HgN/A
5:00 PM72 °FBroken clouds.16 mph50%29.74 "HgN/A
4:49 PM72 °FBroken clouds.12 mph50%29.74 "HgN/A
4:30 PM72 °FPartly sunny.9 mph50%29.74 "HgN/A
4:00 PM72 °FPartly sunny.10 mph50%29.74 "HgN/A
3:30 PM72 °FPartly sunny.9 mph50%29.74 "HgN/A
3:00 PM72 °FScattered clouds.12 mph47%29.74 "HgN/A
2:30 PM73 °FPassing clouds.12 mph47%29.74 "HgN/A
2:00 PM73 °FPassing clouds.12 mph44%29.74 "HgN/A
1:30 PM73 °FPassing clouds.12 mph47%29.74 "HgN/A
1:00 PM73 °FPassing clouds.8 mph44%29.77 "HgN/A
12:30 PM72 °FPassing clouds.12 mph44%29.77 "HgN/A
12:00 PM72 °FPassing clouds.14 mph50%29.77 "HgN/A
11:30 AM73 °FPassing clouds.10 mph44%29.77 "HgN/A
11:00 AM70 °FPassing clouds.12 mph50%29.80 "HgN/A
10:30 AM70 °FPassing clouds.10 mph53%29.80 "HgN/A
10:00 AM70 °FPassing clouds.13 mph53%29.83 "HgN/A
9:30 AM68 °FPassing clouds.13 mph56%29.83 "HgN/A
9:00 AM68 °FPassing clouds.13 mph56%29.83 "HgN/A
8:30 AM68 °FPassing clouds.13 mph60%29.83 "HgN/A
8:00 AM68 °FPassing clouds.12 mph56%29.83 "HgN/A
7:30 AM66 °FPassing clouds.13 mph60%29.83 "HgN/A
7:00 AM64 °FPassing clouds.10 mph68%29.83 "HgN/A
6:00 AM64 °FPassing clouds.10 mph64%29.83 "HgN/A
5:30 AM64 °FPassing clouds.9 mph64%29.83 "HgN/A
5:00 AM64 °FPassing clouds.8 mph64%29.83 "HgN/A
4:30 AM64 °FPassing clouds.10 mph68%29.83 "HgN/A
4:00 AM64 °FPassing clouds.13 mph64%29.83 "HgN/A
3:30 AM64 °FPassing clouds.12 mph68%29.83 "HgN/A
3:00 AM64 °FPassing clouds.8 mph64%29.83 "HgN/A
Weather by CustomWeather, © 2015

See weather overviewHow to use our weather pages